Temperature
32 33 33 34 35 35 35 34 34 34 35 34 34 33 33 33 32 31 30 29 27 26 25 24 24 23 22 21 21 20 20 20 19 19 19 19 19 19 19 19 19 19 19 19
32 32 34 35 35 35 35 34 34 34 35 34 33 33 34 33 33 32 31 30 28 27 26 25 24 23 22 21 21 20 20 20 20 20 19 19 19 19 19 19 19 19 19 19
32 33 35 34 34 34 34 34 34 34 34 34 33 32 33 33 33 32 31 30 29 27 26 25 24 23 22 21 21 21 21 20 20 20 20 19 19 19 19 19 19 19 19 19
33 34 34 34 33 34 33 35 35 34 34 33 33 31 32 32 33 33 32 31 30 28 27 25 24 23 22 22 21 21 21 21 20 20 20 19 19 19 20 19 19 19 19 19
32 33 33 33 34 34 34 35 34 34 33 33 33 32 31 32 31 32 32 31 30 29 27 26 25 24 23 22 21 21 21 21 21 20 20 20 19 19 19 19 19 19 19 19
33 34 34 34 34 34 34 34 34 34 33 32 33 32 31 32 32 33 33 31 30 29 28 27 25 24 23 23 22 21 21 21 21 21 20 20 20 20 19 19 19 19 19 19
31 33 34 34 33 34 33 32 31 31 31 31 33 33 31 33 34 33 33 32 31 30 28 27 26 25 24 23 22 22 21 21 21 21 20 20 20 20 19 19 19 19 19 19
30 31 33 33 33 33 32 32 31 30 30 31 33 32 33 34 34 33 32 32 31 30 29 28 26 25 24 23 23 22 22 21 21 21 20 20 20 20 19 19 19 19 19 19
31 31 33 33 34 33 32 32 33 32 32 31 32 32 33 34 33 33 32 32 31 30 29 28 27 26 24 24 23 22 22 21 21 20 20 20 20 20 19 19 19 19 19 19
32 31 33 33 33 33 33 33 33 32 30 30 31 32 32 32 32 33 32 32 31 30 29 28 27 26 25 24 23 22 22 21 21 20 20 20 20 20 20 19 19 19 19 19
32 31 31 32 31 32 32 32 32 32 31 30 30 31 33 32 33 32 32 31 30 30 29 28 27 26 25 24 23 22 22 21 21 20 20 20 19 19 19 19 19 19 19 18
31 31 30 31 33 33 33 32 32 30 30 30 30 30 33 33 33 32 31 30 30 29 28 27 26 25 24 23 23 22 21 21 20 20 20 19 19 19 19 19 19 19 18 18
31 30 29 30 31 32 32 32 32 32 31 30 30 30 33 32 32 32 31 29 28 28 27 27 25 24 24 23 22 22 21 20 20 20 19 19 19 19 19 19 19 18 18 18
30 29 29 29 30 31 31 31 32 32 30 30 31 30 31 32 31 31 30 29 28 27 26 26 25 24 23 22 22 21 21 20 20 20 19 19 19 19 18 18 18 18 18 18
30 29 29 30 31 32 32 31 32 31 31 31 32 32 31 31 31 30 29 28 28 26 26 25 24 23 23 22 21 21 21 20 20 19 19 19 19 18 18 18 17 17 17 17
29 28 29 29 30 31 31 32 32 32 32 32 32 32 33 32 30 30 29 28 27 26 25 24 23 23 22 22 21 21 20 20 20 19 19 19 18 18 17 17 17 17 17 17
28 27 27 28 30 30 30 31 32 32 32 32 31 31 31 31 30 29 28 28 27 26 25 24 23 22 22 22 21 21 20 20 19 19 19 18 18 18 17 17 17 17 16 16
27 26 26 27 28 27 30 32 32 32 32 32 32 32 31 30 30 29 28 27 27 26 25 24 23 22 22 21 21 20 20 19 19 19 18 18 18 17 17 17 17 16 16 16
27 26 26 27 27 28 30 31 32 31 31 32 32 31 30 30 29 28 27 27 26 25 24 23 23 22 21 21 20 20 19 19 19 18 18 18 17 17 17 16 16 16 16 15
27 26 26 26 26 27 29 31 31 31 29 31 31 30 29 29 28 27 26 26 25 24 24 23 22 22 21 20 20 19 19 19 18 18 18 17 17 17 16 16 16 15 15 15
25 25 25 25 26 27 29 30 30 28 28 30 30 29 29 28 28 26 26 25 24 24 23 22 22 21 21 20 19 19 19 18 18 18 17 17 17 16 16 16 16 15 15 14
25 25 25 25 26 26 29 29 28 27 28 28 28 28 27 27 26 25 25 24 24 23 22 22 21 20 20 20 19 19 18 18 18 18 17 17 16 16 16 15 15 15 14 14
25 26 26 26 26 26 27 26 26 26 27 27 27 27 26 26 25 24 24 23 23 22 22 21 20 20 19 19 19 19 18 18 18 17 17 16 16 15 15 15 15 14 14 14
25 26 26 25 25 26 26 25 25 25 26 26 26 25 25 25 24 23 23 22 22 21 21 20 20 19 19 19 18 18 18 18 17 17 16 16 15 15 15 15 15 14 14 14
25 25 25 24 25 25 25 24 24 24 24 25 25 24 24 24 23 23 22 21 21 21 20 20 19 19 19 19 18 18 18 17 17 16 16 16 15 15 15 15 14 14 14 14
24 24 24 23 24 24 24 23 24 24 24 24 24 23 23 23 22 22 21 21 20 20 19 19 19 18 18 18 18 17 17 17 17 16 16 15 15 15 15 14 14 14 14 14
Wind_Speed
12 13 13 12 11 9 6 5 5 5 6 5 7 9 11 12 11 13 14 15 14 14 14 13 13 13 12 11 10 8 7 7 5 4 4 4 3 3 3 4 6 6 6 5
12 16 14 10 8 8 9 7 6 5 7 5 5 7 11 11 11 12 13 14 15 15 15 14 13 13 12 11 10 9 8 8 7 5 4 3 3 4 4 3 5 7 7 6
17 11 11 11 10 10 10 9 7 6 7 8 6 6 9 11 10 11 12 13 15 16 16 15 14 13 13 13 12 10 8 8 7 6 4 4 3 3 2 3 4 5 7 6
16 13 10 11 12 11 10 9 8 8 8 7 8 6 7 10 11 12 11 12 13 16 16 16 15 14 13 13 12 9 9 8 7 6 5 5 4 4 4 3 3 4 4 4
14 13 12 13 12 11 9 6 9 10 10 10 8 6 5 8 8 10 11 12 12 15 16 16 16 15 14 14 12 11 9 8 7 6 5 5 4 4 3 3 3 3 3 4
15 12 12 13 11 10 8 8 10 11 11 11 10 7 5 6 7 8 11 12 12 13 15 15 15 14 13 13 12 12 10 8 8 7 6 5 4 3 2 2 2 3 3 3
16 15 13 12 13 12 11 10 8 9 10 10 9 7 4 5 6 5 8 10 12 11 12 12 13 14 13 13 12 11 11 9 8 7 6 5 4 3 3 2 3 3 2 3
17 17 16 14 15 12 14 15 11 8 8 8 10 7 6 7 6 6 5 6 9 11 12 12 14 14 14 14 12 11 11 9 8 8 6 5 4 4 3 3 2 2 2 2
14 17 17 15 14 15 14 15 15 12 11 9 7 7 8 8 7 7 7 6 7 8 10 11 12 14 13 13 12 11 11 10 9 7 6 4 4 3 2 1 1 1 1 1
12 11 15 16 14 17 15 14 11 10 8 10 8 9 8 12 10 8 6 6 6 8 9 10 10 11 11 10 9 9 10 9 7 7 6 5 4 3 2 1 1 0 1 1
17 11 13 16 16 17 16 16 12 9 9 10 7 2 4 10 10 9 7 7 6 7 8 8 9 10 11 10 10 8 8 8 8 6 5 4 4 4 3 2 2 2 1 1
16 11 12 16 16 16 16 17 15 10 8 8 8 2 5 8 9 9 8 7 7 7 7 8 8 9 9 10 9 8 8 7 7 6 5 4 3 3 3 2 1 2 2 1
13 10 12 14 15 17 16 16 16 13 10 10 11 5 5 7 6 8 9 8 7 7 7 8 9 7 8 9 8 8 7 7 7 7 6 4 3 3 3 2 2 2 2 2
10 11 13 15 14 17 18 18 17 15 11 12 11 8 8 8 8 8 9 9 8 8 8 9 9 8 8 8 8 8 7 7 7 6 6 5 4 3 3 2 3 3 3 3
10 14 15 16 13 15 17 18 19 18 16 14 11 11 10 8 9 9 10 9 8 8 8 10 10 9 9 8 7 7 7 7 6 6 6 5 5 4 3 3 3 3 4 4
10 10 14 16 16 14 15 17 19 19 17 16 14 8 7 8 9 9 10 10 9 9 9 10 10 10 9 8 8 7 7 7 7 7 6 5 5 5 4 4 5 4 5 4
12 9 11 15 16 15 17 16 16 16 16 15 14 7 6 8 8 9 9 9 9 8 8 9 10 10 9 8 8 8 8 7 7 7 6 5 5 5 4 5 5 5 5 5
10 9 8 12 13 17 12 13 14 14 13 12 9 6 6 6 7 7 9 9 9 9 8 9 9 9 9 9 9 9 8 8 7 6 5 5 6 6 5 5 5 5 5 5
10 9 10 12 14 14 12 11 13 13 12 10 8 5 5 5 6 6 6 8 8 8 8 8 8 10 10 9 9 9 8 8 7 7 6 6 6 6 6 5 5 5 5 6
13 9 11 11 13 13 12 11 9 9 10 9 7 6 7 7 6 5 6 7 8 9 8 8 8 10 10 9 9 9 9 8 7 7 6 6 6 6 6 5 5 5 5 6
16 14 15 15 12 9 5 7 10 12 7 5 6 6 7 5 3 6 8 7 7 8 8 8 8 8 8 9 9 8 8 8 8 8 7 7 6 6 6 5 4 4 5 6
14 14 14 14 13 8 4 6 6 2 4 3 3 5 5 5 8 8 8 7 8 8 9 9 8 8 8 8 8 8 8 8 9 9 8 7 7 6 6 5 4 4 5 6
13 10 9 6 4 2 5 6 5 4 5 4 4 5 7 7 7 7 7 7 8 8 8 7 8 8 8 8 8 9 8 9 9 9 8 8 7 6 5 5 4 4 4 5
9 7 7 5 5 3 4 6 5 4 4 4 4 4 5 6 7 7 6 6 6 7 7 7 7 8 8 8 8 8 9 10 10 9 8 7 7 7 5 4 4 3 2 3
6 6 6 5 5 5 4 4 4 3 3 3 3 2 4 5 7 7 6 6 6 6 6 6 6 7 8 8 8 9 10 10 10 9 8 8 7 6 6 5 4 3 4 2
2 3 5 4 3 4 5 3 3 3 3 3 3 3 4 4 5 6 6 6 6 6 5 6 6 7 8 9 9 9 9 9 9 8 7 7 7 6 6 7 6 10 7 9
Wind_Direction
217 229 229 226 230 251 254 241 200 168 156 201 172 160 158 163 165 159 163 163 166 166 163 161 162 158 156 153 154 164 167 160 166 176 182 197 193 205 206 193 179 184 196 198
219 228 234 238 243 246 250 247 229 190 161 214 207 177 162 165 171 166 165 167 168 166 165 163 165 162 161 159 161 167 174 170 181 187 192 202 202 219 208 191 168 194 199 201
225 221 221 231 237 237 242 243 241 218 185 202 211 212 177 171 173 164 168 172 170 169 169 167 169 168 168 169 170 178 179 175 188 184 194 213 195 237 215 183 187 204 205 210
231 230 220 222 228 234 236 243 250 247 236 226 210 219 191 182 178 172 174 173 173 169 170 170 172 174 174 173 174 173 172 175 182 185 201 209 206 220 219 192 190 197 200 212
223 222 220 224 221 230 240 248 251 252 256 258 227 230 209 183 189 181 177 174 176 171 172 173 176 176 177 176 175 172 168 174 179 189 202 212 222 222 214 188 183 188 199 209
235 220 222 225 221 225 234 242 247 250 253 250 242 236 208 187 181 182 177 175 177 176 173 172 174 171 176 177 176 174 171 176 178 188 199 207 224 230 242 197 179 198 206 207
226 224 217 222 219 212 219 228 226 226 230 238 237 235 190 173 164 158 165 170 176 176 169 169 170 170 175 176 176 174 170 177 179 186 199 201 217 225 242 231 215 218 211 208
209 216 210 212 221 214 211 227 234 235 232 225 221 218 181 153 131 123 129 144 158 167 168 170 173 172 179 179 175 173 168 173 178 186 194 200 203 218 229 226 233 221 234 219
210 214 205 206 217 229 215 227 241 249 261 256 222 191 180 158 153 154 155 155 157 159 161 167 172 170 178 177 174 174 165 166 174 182 185 190 194 206 218 203 220 254 266 252
242 220 200 197 212 229 235 228 237 248 259 261 239 211 189 168 168 168 158 160 158 155 157 155 157 158 166 166 160 162 158 161 166 173 182 183 180 188 198 173 177 281 26 11
239 232 210 196 206 216 220 229 235 246 254 259 262 258 147 153 158 161 159 143 134 139 144 142 142 146 147 145 147 146 149 153 159 168 169 172 167 165 168 172 153 141 118 94
225 229 222 207 207 223 226 229 228 234 245 263 267 235 124 131 144 146 141 128 122 125 126 125 126 133 137 139 144 147 150 153 154 151 148 151 142 146 154 149 129 119 120 106
215 235 224 212 206 211 230 228 233 233 238 245 252 213 159 146 147 141 135 127 120 122 124 119 118 124 128 134 136 138 139 142 143 143 141 135 129 123 129 138 132 121 112 98
222 230 237 224 210 202 216 227 228 231 231 234 236 207 188 170 151 143 138 138 137 135 131 124 120 122 122 125 129 134 137 139 140 138 139 132 126 121 128 126 117 109 103 93
223 227 240 256 253 224 213 218 224 229 234 239 238 218 190 171 152 151 148 146 142 134 133 129 129 129 128 131 133 133 133 132 134 133 132 133 130 120 112 109 109 107 99 93
219 240 236 246 252 244 228 220 220 226 229 238 248 242 176 162 147 151 150 151 147 146 148 139 136 135 140 144 143 138 135 136 135 136 137 135 134 126 117 113 109 101 93 83
203 228 235 238 238 245 234 225 224 225 227 233 239 214 167 152 157 154 153 158 156 153 147 145 144 144 145 146 141 140 139 137 136 135 135 135 135 131 126 122 109 100 94 90
207 218 233 239 233 236 237 227 230 231 232 232 234 186 176 172 162 156 161 157 155 156 153 150 149 146 147 146 143 142 143 142 141 139 135 130 127 123 118 114 108 105 103 97
208 211 230 236 231 231 229 227 224 225 230 230 222 190 173 164 164 162 165 150 145 151 147 148 149 147 145 146 145 144 144 144 143 141 136 130 124 125 123 119 116 112 110 103
204 205 229 235 237 230 223 216 223 224 228 219 207 181 172 186 200 183 145 132 139 140 142 145 146 141 142 144 145 147 148 145 143 138 133 128 125 127 123 119 116 115 114 113
200 201 221 235 236 237 230 201 204 219 212 196 195 179 179 194 192 131 127 132 134 134 139 140 137 137 142 144 148 151 149 147 140 132 126 124 123 122 121 119 118 126 127 119
200 202 212 230 232 225 201 203 206 152 80 108 139 161 157 134 126 125 126 130 136 140 142 141 139 140 142 147 152 151 149 141 134 132 129 127 127 129 126 125 127 138 137 131
207 211 205 217 216 48 62 83 82 77 90 97 128 139 142 141 139 133 130 134 139 140 142 144 145 145 150 153 156 153 142 138 138 135 133 132 130 120 123 128 129 132 143 139
199 206 206 182 173 147 98 101 93 90 104 97 94 117 145 147 146 140 137 134 137 142 144 145 150 156 153 153 153 146 142 143 142 141 140 137 133 131 127 126 127 124 127 141
201 201 192 181 157 150 142 124 120 113 106 106 103 127 121 140 148 142 134 133 139 142 145 147 149 152 151 149 146 145 145 147 146 146 146 144 140 132 117 99 69 86 67 84
247 201 202 189 157 172 146 131 138 138 134 123 119 126 134 132 137 142 136 133 140 143 145 147 151 153 148 146 144 144 148 151 152 153 156 155 151 147 144 132 101 59 75 79
Height
1496 1496 1495 1489 1485 1485 1486 1489 1493 1491 1489 1495 1497 1501 1502 1506 1510 1515 1520 1525 1530 1535 1539 1542 1545 1548 1550 1552 1554 1556 1558 1559 1561 1562 1564 1565 1566 1567 1568 1569 1569 1570 1571 1571
1494 1494 1487 1483 1483 1485 1487 1492 1493 1491 1488 1495 1497 1499 1499 1503 1507 1511 1516 1522 1527 1533 1537 1540 1544 1546 1548 1550 1552 1554 1556 1558 1560 1561 1563 1564 1566 1566 1567 1568 1568 1569 1569 1570
1492 1487 1483 1485 1487 1490 1491 1493 1492 1494 1491 1492 1498 1505 1500 1501 1504 1508 1513 1518 1523 1529 1533 1538 1541 1544 1546 1548 1550 1553 1555 1556 1558 1560 1561 1563 1564 1565 1566 1566 1566 1567 1567 1568
1486 1482 1483 1486 1489 1490 1497 1486 1487 1490 1497 1500 1498 1519 1505 1500 1502 1505 1510 1515 1520 1525 1530 1534 1538 1541 1544 1546 1548 1551 1553 1555 1556 1558 1559 1561 1562 1563 1564 1564 1564 1565 1565 1566
1485 1482 1485 1489 1488 1487 1490 1486 1488 1491 1496 1500 1497 1511 1511 1500 1505 1503 1506 1511 1516 1521 1526 1531 1534 1538 1542 1545 1547 1548 1550 1552 1554 1556 1557 1559 1560 1561 1562 1562 1563 1563 1563 1564
1480 1479 1481 1484 1483 1486 1487 1490 1493 1493 1498 1514 1501 1509 1515 1501 1500 1499 1502 1508 1513 1518 1522 1527 1531 1536 1539 1543 1545 1547 1548 1550 1552 1554 1555 1556 1558 1559 1560 1560 1561 1561 1561 1561
1487 1481 1480 1482 1486 1487 1491 1502 1517 1521 1520 1516 1494 1502 1507 1494 1492 1495 1499 1504 1509 1514 1519 1524 1529 1533 1536 1540 1542 1544 1546 1548 1549 1551 1553 1554 1555 1557 1557 1558 1558 1558 1559 1559
1494 1493 1481 1481 1485 1489 1492 1497 1516 1528 1524 1511 1498 1503 1496 1487 1491 1495 1499 1503 1507 1512 1516 1521 1525 1530 1533 1537 1539 1542 1544 1545 1547 1549 1551 1552 1553 1554 1555 1555 1556 1556 1557 1557
1483 1487 1475 1477 1481 1483 1490 1493 1487 1500 1505 1511 1503 1496 1490 1486 1491 1495 1500 1503 1506 1510 1514 1518 1522 1526 1531 1535 1537 1540 1542 1544 1546 1547 1549 1550 1551 1552 1552 1553 1554 1554 1555 1555
1471 1482 1474 1476 1480 1481 1482 1486 1492 1502 1520 1523 1509 1501 1498 1492 1492 1494 1498 1502 1505 1509 1513 1517 1521 1524 1528 1532 1536 1539 1541 1542 1544 1546 1547 1548 1549 1550 1550 1551 1552 1551 1552 1553
1470 1481 1479 1477 1485 1486 1487 1488 1490 1494 1500 1516 1522 1509 1481 1486 1489 1493 1498 1502 1506 1510 1513 1517 1520 1524 1527 1531 1535 1537 1540 1541 1543 1544 1546 1547 1548 1548 1549 1549 1549 1550 1550 1551
1471 1476 1483 1478 1474 1476 1479 1483 1488 1504 1507 1504 1513 1511 1481 1484 1488 1493 1498 1503 1507 1510 1513 1517 1521 1524 1527 1530 1534 1536 1538 1540 1542 1543 1545 1546 1546 1547 1547 1547 1547 1548 1548 1548
1471 1479 1492 1491 1486 1480 1481 1480 1482 1487 1496 1504 1511 1509 1485 1487 1490 1494 1499 1504 1508 1511 1514 1516 1520 1524 1527 1530 1533 1536 1538 1540 1541 1542 1543 1544 1545 1545 1545 1545 1546 1546 1546 1547
1472 1479 1485 1491 1484 1479 1484 1482 1480 1486 1498 1501 1501 1499 1490 1488 1491 1496 1501 1505 1508 1512 1514 1517 1520 1524 1527 1530 1533 1535 1537 1539 1541 1542 1542 1543 1543 1544 1543 1544 1544 1545 1545 1545
1473 1480 1479 1475 1469 1468 1474 1478 1479 1483 1485 1493 1490 1489 1487 1487 1491 1496 1501 1505 1509 1513 1516 1518 1521 1524 1527 1530 1532 1535 1537 1539 1540 1541 1541 1542 1543 1543 1543 1543 1543 1544 1544 1545
1475 1480 1480 1480 1472 1469 1472 1472 1475 1478 1479 1482 1483 1484 1480 1486 1491 1497 1501 1506 1510 1513 1516 1519 1521 1523 1526 1529 1531 1534 1536 1537 1539 1539 1540 1541 1542 1543 1543 1543 1543 1543 1543 1544
1476 1483 1487 1486 1476 1475 1481 1471 1472 1474 1473 1478 1484 1483 1483 1487 1492 1496 1500 1504 1509 1512 1515 1518 1520 1523 1525 1528 1530 1532 1534 1536 1537 1538 1539 1541 1542 1542 1543 1543 1543 1543 1543 1544
1477 1484 1485 1485 1485 1498 1475 1462 1465 1470 1471 1472 1475 1478 1482 1487 1491 1496 1499 1503 1508 1511 1514 1517 1520 1522 1525 1527 1529 1531 1534 1535 1536 1537 1539 1540 1541 1541 1542 1543 1543 1543 1543 1543
1475 1482 1486 1486 1488 1484 1471 1463 1464 1471 1474 1471 1475 1479 1483 1488 1491 1496 1500 1502 1506 1510 1513 1516 1519 1522 1524 1526 1528 1530 1532 1534 1535 1536 1538 1539 1540 1541 1541 1542 1542 1543 1543 1543
1474 1478 1486 1485 1491 1491 1473 1463 1464 1470 1480 1473 1476 1480 1484 1488 1493 1497 1499 1502 1506 1509 1513 1516 1518 1521 1523 1525 1527 1529 1530 1532 1534 1535 1537 1538 1539 1540 1541 1542 1542 1542 1543 1544
1476 1481 1485 1485 1486 1477 1463 1462 1466 1483 1482 1474 1476 1480 1484 1487 1491 1495 1498 1502 1505 1509 1512 1515 1517 1519 1521 1524 1526 1527 1529 1531 1533 1534 1536 1537 1538 1539 1540 1541 1542 1542 1543 1544
1474 1478 1483 1482 1485 1482 1464 1464 1470 1475 1474 1476 1478 1481 1485 1489 1492 1496 1499 1502 1505 1509 1512 1514 1516 1518 1520 1522 1524 1526 1528 1530 1532 1533 1535 1536 1538 1539 1540 1541 1541 1542 1543 1544
1466 1468 1470 1474 1476 1471 1468 1470 1474 1475 1476 1478 1480 1483 1486 1489 1493 1496 1500 1503 1506 1509 1511 1513 1515 1517 1519 1521 1523 1525 1527 1529 1530 1532 1534 1536 1537 1538 1540 1541 1541 1541 1543 1544
1462 1463 1465 1469 1470 1471 1472 1474 1476 1478 1479 1480 1482 1484 1487 1489 1493 1497 1500 1502 1505 1508 1510 1512 1514 1516 1518 1520 1522 1524 1525 1527 1529 1531 1533 1535 1536 1538 1539 1540 1541 1542 1543 1544
1461 1463 1464 1468 1470 1472 1475 1476 1478 1480 1481 1482 1483 1486 1488 1490 1493 1496 1499 1502 1504 1507 1509 1511 1513 1514 1516 1518 1520 1522 1524 1526 1528 1530 1532 1534 1536 1537 1538 1540 1541 1542 1543 1544
1463 1465 1468 1469 1470 1472 1475 1477 1479 1481 1482 1484 1484 1487 1488 1490 1493 1495 1498 1501 1503 1506 1508 1510 1511 1513 1515 1517 1519 1521 1523 1525 1527 1529 1531 1533 1535 1537 1538 1539 1540 1542 1543 1544